Location: Newark
(44.1906°N, 75.9681°W)
Time: 13:41:19
(UTC+00:00)

Envisat - Pass Details

Date: 30 January 2020
Orbit: 764 x 766 km, 98.1° (Epoch: 24 February)

Event Time Altitude Azimuth Distance (km) Brightness Sun altitude
Rises 22:42:13 0° 162° (SSE) 3,219 6.2 -6.1°
Reaches altitude 10° 22:44:30 10° 162° (SSE) 2,297 5.5 -6.5°
Maximum altitude 22:49:34 82° 75° (ENE) 779 3.0 -7.4°
Drops below altitude 10° 22:54:41 10° 349° (NNW) 2,313 5.4 -8.3°
Sets 22:57:00 0° 348° (NNW) 3,243 6.2 -8.7°
